STARLINK-3059, 49181

Orbit data source: Space-Track

STARLINK-3059, 49181 is a payload satellite owned by SpaceX/Seattle (US) in LEO that was launched on Tue, 14 Sep 2021 UTC via an FALCON 9 launch vehicle from the Air Force Western Test Range (AFWTR). Payload-class satellites include a variety of spacecraft equipped with specific instruments for various scientific and technological missions. These include communications satellites like Starlink; space stations such as the ISS; scientific satellites like the Hubble; Earth observation satellites from companies like Planet Labs, Umbra, and HawkEye 360; GPS; miniature CubeSats for education and research; and military/defense satellites.

Loading next visibility...
Identifier
49181, 2021-082BD
Orbit
LEO
Country
Flag of USUS
Related business
Manufacturer
SpaceX/Seattle
Mission
Operational Commercial Communications
Bus & Motor
STARLINK, Unknown motor
Mass
297 kg wet, ~275 kg dry
Launch date (UTC)
2021-09-14 (4 years ago)
Launch vehicle
FALCON 9
Launch site
Air Force Western Test Range (AFWTR)
Object type
Payload
Rocket body
Debris
Shape & HBR
Box + 1 Pan, 10.1 m
Radar Cross Section
13.562 m², Large (>1 m²)

Expand to show TLE details & history
Last TLE update: 17 hours ago

TLE from 17 hours ago
0 STARLINK-3059
1 49181U 21082BD  25286.46232741  .00000063  00000-0  13109-4 0  9995
2 49181  69.9977 305.6693 0003085 269.2011  90.8794 14.98330289225116
Epoch: 2025-10-13T11:05Z
TLE epoch observation values (Epoch: 2025-10-13T11:05:45.088Z)
Latitude
-0.00006°
Longitude
116.96665°
Altitude
574.512 km
Speed
7.574 km/s
True Right ascension
20h 22m 40s
True Declination
0° 00' 00"
Sunlit
Object was in daylight at epoch
Visualization orbit readout
Latitude
Unknown
Longitude
Unknown
Altitude
Unknown
Speed
Unknown
Apparent Right ascension
Unknown
Apparent Declination
Unknown
Sunlit
N/A
Visualization observer readout
Local Sidereal Time
22:30:29
Azimuth
Unknown
Elevation
Unknown
Doppler factor
Unknown
Orbital elements
Apogee altitude
572.147 km
Perigee altitude
567.86 km
Semi-major axis
6,948.14 km
Eccentricity
0.00031
Inclination
69.9977°
RAAN
305.6693°
Arg. of periapsis
269.2011°
True anomaly
90.91475°
Mean anomaly
90.8794°
Eccentric anomaly
90.89707°
Mean motion
3.74749 °/min
Orbital period
96.06 mins
BSTAR
0.000013109
Loading maneuver chart data...
Computing Atmospheric mass density...
Loading historical data...
Loading historical data...
Loading historical data...
Loading historical data...
Loading historical data...
Loading historical data...
Loading historical data...

Documentation

Showing up to 5 results
|